Location: Buckeye Ditch
(40.9104°N, 122.9517°W)
Time: 12:18:40
(UTC+00:00)

Explorer 7 - Pass Details

Date: 21 May 2025
Orbit: 445 x 571 km, 50.3° (Epoch: 22 June)

Event Time Altitude Azimuth Distance (km) Brightness Sun altitude
Rises 09:46:32 0° 230° (SW) 2,460 - -24.7°
Reaches altitude 10° 09:48:37 10° 228° (SW) 1,604 - -24.5°
Maximum altitude 09:52:14 73° 143° (SE) 499 - -24.2°
Exits shadow 09:53:16 44° 72° (ENE) 668 7.5 -24.1°
Drops below altitude 10° 09:56:00 10° 60° (ENE) 1,680 10.1 -23.9°
Sets 09:58:15 0° 58° (ENE) 2,589 11.2 -23.7°
